Regional Weather Roundup
Issued by NWS

Home | Current Version | Previous Version | Graphics & Text | Print | Product List | Glossary On
Versions: 1 2 3 4 5 6 7 8 9 10 11 12 13 14 15 16 17 18 19 20 21 22 23 24 25 26 27 28 29 30 31 32 33 34 35 36 37 38 39 40 41 42 43 44 45 46 47 48 49 50
000
ASUS43 KLMK 301002
RWRKY
KENTUCKY REGIONAL WEATHER ROUNDUP
NATIONAL WEATHER SERVICE LOUISVILLE KY
600 AM EDT TUE AUG 30 2016

NOTE "FAIR" INDICATES FEW OR NO CLOUDS BELOW 12,000 FEET
WITH NO SIGNIFICANT WEATHER AND/OR OBSTRUCTIONS TO VISIBILITY.

KYZ001>023-026-027-061>063-070>075-301100-
WESTERN AND SOUTH CENTRAL KENTUCKY

CITY           SKY/WX    TMP DP  RH WIND       PRES   REMARKS
PADUCAH        CLEAR     72  70  93 CALM      30.08S FOG
HENDERSON      CLEAR     70  66  88 CALM      30.08F
OWENSBORO      CLEAR     75  73  93 CALM      30.10F
HOPKINSVILLE   CLEAR     73  70  91 E3        30.09S
BOWLING GREEN  CLEAR     72  70  93 CALM      30.10S
GLASGOW        CLEAR     70  70 100 NE5       30.11S
$$

KYZ024-025-028>034-038-045-046-053-301100-
NORTH CENTRAL KENTUCKY

CITY           SKY/WX    TMP DP  RH WIND       PRES   REMARKS
LOUISVILLE/SDF CLEAR     75  71  87 NE3       30.11F
LOUISVILLE/LOU CLEAR     74  70  87 CALM      30.12F
FORT KNOX      CLEAR     71  70  95 N5        30.11S
$$

KYZ035>037-039>044-047>052-055>060-089>105-301100-
NORTHEAST KENTUCKY

CITY           SKY/WX    TMP DP  RH WIND       PRES   REMARKS
LEXINGTON      CLEAR     71  67  87 NE7       30.14F
COVINGTON      CLEAR     73  69  87 N5        30.16F
FRANKFORT      CLEAR     71  68  90 CALM      30.13F
$$

KYZ054-064>069-076>088-106>120-301100-
SOUTHEAST KENTUCKY

CITY           SKY/WX    TMP DP  RH WIND       PRES   REMARKS
JACKSON        CLEAR     71  68  90 CALM      30.16S
LONDON         CLEAR     69  66  90 CALM      30.14S
SOMERSET       CLEAR     68  68 100 CALM      30.14R
MIDDLESBORO    FOG       69  69 100 CALM      30.15S VSB 1
MONTICELLO     SUNNY    N/A N/A N/A W7        30.15R
$$





USA.gov is the U.S. government's official web portal to all federal, state and local government web resources and services.